Location: Chantarel
(45.1638°N, 1.7873°E)
Time: 21:30:10
(UTC+00:00)

Daily predictions for brighter satellites

Satellite Brightness Start Highest point End
(mag) Time Altitude Azimuth Time Altitude Azimuth Time Altitude Azimuth
H-2A R/B 2.3 18:02:51 10° SE 18:08:08 54° ENE 18:13:26 10° N
CZ-2C R/B 3.6 18:04:10 10° NE 18:08:41 26° E 18:13:04 10° SSE
USA 305 4.4 18:05:49 10° WNW 18:09:37 30° NNW 18:13:24 10° NE
IRS-1C Rocket 4.1 18:06:42 10° SSE 18:11:56 70° ENE 18:17:12 10° N
Gbstr 26 Del rocket 3.9 18:08:13 10° W 18:12:20 47° NNW 18:17:20 10° ENE
Meteor 1-20 Rocket 4.1 18:08:50 10° S 18:14:14 68° E 18:19:42 10° NNE
Cosmos 1302 Rocket 4.1 18:09:20 10° SSW 18:14:31 85° WNW 18:19:46 10° NNE
SL-4 R/B 3.0 18:12:01 10° WNW 18:15:10 28° N 18:18:12 10° ENE
CSL-04 DEB 4.4 18:15:28 10° NNE 18:19:26 84° WNW 18:23:27 10° SSW
USA 307 4.4 18:17:12 10° WNW 18:20:57 29° NNW 18:24:43 10° NE
ATLAS CENTAUR R/B 2.0 18:20:03 10° S 18:23:07 27° ESE 18:26:14 10° ENE
FALCON 9 DEB 4.1 18:20:08 10° NW 18:23:20 34° NNE 18:26:13 12° E
USA 306 4.5 18:20:42 10° WNW 18:24:24 28° NNW 18:28:07 10° NE
Cosmos 44 Rocket 3.4 18:22:17 10° NNW 18:27:33 74° NE 18:32:44 10° SE
Okean-O 2.6 18:23:30 10° SSE 18:27:53 67° ENE 18:32:18 10° N
ERS-2 2.4 18:25:11 10° NNE 18:28:42 43° E 18:32:11 10° S
CSL-04 Rocket 4.0 18:24:04 10° SE 18:29:20 47° ENE 18:34:35 10° N
Cosmos 2084 Rocket 3.6 18:25:37 10° NNW 18:29:54 57° NE 18:34:19 10° SE
Cosmos 1844 Rocket 3.2 18:24:40 10° NNW 18:29:54 39° NE 18:35:06 10° SE
CSL-04 Debris 4.4 18:25:26 10° SE 18:30:39 51° ENE 18:35:57 10° N
SAR-Lupe-1 4.4 18:27:22 10° NNE 18:30:49 43° E 18:34:15 10° S
USA 308 4.5 18:27:56 10° WNW 18:31:38 27° N 18:35:19 10° NE
Cosmos 1666 4.1 18:30:50 10° SE 18:33:21 17° E 18:35:53 10° NE
Cosmos 1271 Rocket 3.7 18:30:50 10° NNW 18:34:27 50° W 18:38:06 10° S
HJ-1C 3.5 18:32:36 10° SSE 18:35:50 52° ENE 18:39:04 10° N
Cosmos 1503 Rocket 4.1 18:31:32 10° NNW 18:36:38 52° ENE 18:41:39 10° SE
Cosmos 2341 Rocket 4.5 18:31:31 10° SSE 18:37:13 37° E 18:42:55 10° NNE
H-2A R/B 4.4 18:34:03 10° N 18:37:24 25° WNW 18:40:45 10° WSW
PSLV R/B 3.8 18:35:44 10° NNE 18:39:50 78° ESE 18:43:53 10° S
Cosmos 1470 Rocket 3.5 18:36:45 10° S 18:41:10 64° E 18:45:35 10° NNE
Cosmos 1844 4.2 18:36:15 10° NNW 18:41:44 41° NE 18:46:58 11° SE
Cosmos 2360 Rocket 2.4 18:38:08 10° S 18:43:33 51° ESE 18:49:01 10° NE
CZ-4B R/B 3.2 18:40:59 10° N 18:43:44 31° WNW 18:46:30 10° SW
Cosmos 1602 4.0 18:40:57 10° SSW 18:44:49 72° W 18:48:46 10° N
Ariane Rocket 4.2 18:42:04 14° ESE 18:44:56 23° ENE 18:48:52 10° NNE
Cosmos 2278 Rocket 4.0 18:43:37 10° N 18:46:34 14° NE 18:48:36 12° ENE
Meteor 1-19 Rocket 4.3 18:43:39 10° N 18:49:38 89° W 18:55:24 10° S
Cosmos 1500 3.1 18:48:13 10° S 18:51:53 61° E 18:55:35 10° NNE
Cosmos 2333 Rocket 3.0 18:49:11 10° SSE 18:53:51 27° ESE 18:58:33 10° NE
Meteor 2-4 Rocket 3.8 18:48:24 10° N 18:54:12 61° ENE 19:00:03 10° SSE
Cosmos 1703 Rocket 3.9 18:50:12 10° N 18:54:25 42° ENE 18:58:33 10° SSE
DMSP B5D1-3 4.5 18:49:47 10° NNE 18:54:58 85° ESE 19:00:08 10° SSW
SL-08 RB Rocket 3.6 18:52:00 10° SSE 18:56:28 70° ENE 19:01:01 10° N
Cosmos 1689 Rocket 2.3 18:54:20 10° N 18:57:12 66° WNW 19:00:03 10° SSW
Meteor 2-12 Rocket 4.4 18:51:14 10° S 18:57:18 81° E 19:03:25 10° N
ERBS 4.4 18:56:46 10° W 18:59:25 22° NNW 19:02:05 10° NNE
Cosmos 1933 Rocket 3.4 18:57:45 10° S 19:02:04 71° E 19:06:27 10° NNE
BREEZE-M DEB (TANK) 4.1 19:02:07 10° SSW 19:03:36 20° SSE 19:03:36 20° SSE
Aureole 2 Rocket 2.2 19:02:36 10° NNW 19:05:06 56° WSW 19:06:52 16° S
Resurs 01 Rocket 3.5 19:12:41 15° NE 19:12:41 15° NE 19:14:20 10° NNE
Cosmos 2242 Rocket 3.5 19:08:00 10° N 19:12:31 76° E 19:16:58 10° SSE
Cosmos 2322 Rocket 2.9 19:08:02 10° SW 19:13:33 57° WNW 19:19:06 10° NNE
Lacrosse 4 Rocket 2.6 19:11:51 10° S 19:14:29 25° SE 19:14:29 25° SE
Abrixas rocket 2.6 19:13:48 10° WNW 19:16:07 35° N 19:16:07 35° N
Helios 1A Rocket 3.7 19:14:56 10° S 19:18:54 53° W 19:22:53 10° NNW
SME Rocket 4.3 19:11:18 10° NNE 19:18:59 49° E 19:24:03 10° S
YAOGAN 1 4.4 19:15:51 10° SSW 19:19:45 33° W 19:23:42 10° NNW
SJ-6B 2.9 19:22:30 38° SE 19:23:44 54° ENE 19:27:43 10° N
COSMOS 2428 3.2 19:18:45 10° SSE 19:23:49 34° ESE 19:24:51 32° E
GP-B 3.4 19:23:22 10° S 19:27:47 70° W 19:32:14 10° N
ASTEX 1 3.5 19:23:19 10° NNE 19:28:03 46° E 19:30:11 28° SSE
MOS 1 4.4 19:25:33 26° SE 19:28:38 54° ENE 19:34:09 10° N
Cosmos 2219 Rocket 2.3 19:25:25 10° S 19:30:42 46° ESE 19:36:03 10° NE
Meteor 1-11 Rocket 3.8 19:25:33 10° S 19:31:07 54° E 19:36:34 10° NNE
MetOp-A 4.0 19:27:21 10° SSE 19:32:42 85° ENE 19:38:06 10° NNW
OBJECT-B 2.1 19:36:26 29° N 19:36:26 29° N 19:38:14 10° N
Resurs 1-3 4.1 19:38:47 42° NE 19:38:47 42° NE 19:42:26 10° N
SL-16 R/B 4.0 19:33:27 10° WSW 19:38:28 32° NW 19:43:31 10° N
SJ 16-02 2.8 19:37:05 10° N 19:39:34 24° NNE 19:39:34 24° NNE
SeaSat 1 3.2 19:36:37 10° NNE 19:41:26 53° WNW 19:46:13 10° SW
Okean 1-7 3.4 19:37:19 10° NNW 19:41:39 64° W 19:45:45 11° S
CZ-4 R/B 4.5 19:41:19 10° WSW 19:43:24 14° W 19:45:29 10° WNW
Cosmos 1066 Rocket 4.2 19:38:15 10° N 19:43:55 61° ENE 19:45:41 42° SE
Meteor 1-13 Rocket 4.2 19:38:22 10° N 19:44:22 83° E 19:48:31 20° SSE
USA 234 3.1 19:39:53 21° NE 19:44:30 81° SE 19:51:03 10° SW
CZ-2C R/B 3.7 19:43:57 10° N 19:49:11 47° WNW 19:54:19 10° SW
IRS-1A Rocket 4.1 19:46:43 31° SSE 19:49:34 81° ENE 19:55:09 10° NNW
USA 305 4.4 19:46:56 10° NW 19:50:32 26° N 19:50:56 25° NNE
Cosmos 2322 3.6 19:44:56 10° SSW 19:50:39 84° ESE 19:56:25 10° NNE
BREEZE-M DEB (TANK) 3.0 19:48:10 10° WNW 19:50:52 50° NNE 19:51:09 49° NNE
SL-4 R/B 2.8 19:51:47 10° NW 19:54:12 38° NNW 19:54:12 38° NNW
Cosmos 1869 Rocket 3.7 19:52:02 10° SSW 19:56:22 73° W 20:00:47 10° N
SL-8 Rocket 4.2 19:52:35 10° SSW 19:58:48 71° W 20:05:01 10° N
Gbstr 26 Del rocket 4.2 19:55:31 10° WNW 20:00:05 42° N 20:00:59 39° NE
ATLAS CENTAUR R/B 3.0 19:58:44 10° WSW 20:01:55 28° NW 20:03:10 23° N
USA 307 4.5 19:58:17 10° NW 20:01:49 26° N 20:01:49 26° N
USA 306 4.5 20:01:40 10° NW 20:05:03 27° N 20:05:03 27° N
Cosmos 1666 4.4 20:05:18 10° SW 20:08:39 31° WNW 20:12:02 10° N
Cosmos 1844 Rocket 4.1 20:08:45 10° NW 20:13:42 34° WSW 20:17:54 14° SSW
Cosmos 2366 rocket 4.3 20:07:34 10° SSW 20:13:51 68° W 20:20:13 10° N
SL-08 R/B 4.4 20:11:58 36° S 20:14:51 78° E 20:21:20 10° N
SPOT 3 Rocket 3.9 20:18:37 54° NNE 20:18:37 54° NNE 20:22:45 10° N
Okean 3 4.4 20:15:43 10° NNW 20:19:31 48° WNW 20:19:31 48° WNW
Ariane Rocket 3.7 20:22:15 41° SW 20:23:33 52° W 20:28:33 10° NNW
Cosmos 2360 Rocket 4.0 20:22:56 10° WSW 20:27:48 29° NW 20:32:43 10° N
Cosmos 2278 Rocket 2.7 20:26:10 10° NNW 20:30:28 49° N 20:30:28 49° N
Cosmos 1727 Rocket 4.3 20:30:18 10° NNW 20:36:24 64° W 20:37:45 51° SW
Cosmos 2333 Rocket 3.0 20:32:18 10° SW 20:37:48 50° WNW 20:43:23 10° NNE
Resurs 01 Rocket 3.7 20:50:14 23° NNW 20:50:14 23° NNW 20:52:01 10° NNW
Cosmos 1943 Rocket 4.3 20:46:35 10° N 20:48:24 16° NNE 20:48:24 16° NNE
Lacrosse 4 Rocket 4.1 20:50:08 10° WSW 20:50:57 15° WSW 20:50:57 15° WSW
COSMOS 2428 3.9 21:02:40 10° SW 21:14:01 - NNE 21:07:14 38° WNW
Cosmos 2219 Rocket 3.8 21:09:55 10° WSW 21:14:50 31° NW 21:19:47 10° N
SJ 16-02 4.2 21:15:35 10° NW 21:16:35 15° NW 21:16:35 15° NW
USA 234 4.1 21:27:15 44° NNW 21:27:15 44° NNW 21:33:19 10° W
